Weather History for Ashtabula, OH

Change the Weather History Date:

Wednesday, May 14, 2014

  Actual Average (KYNG) Record (KYNG)
Temperature  
Mean Temperature 68 °F 57 °F  
Max Temperature 81 °F 68 °F 89 °F (1962)
Min Temperature 57 °F 46 °F 28 °F (2013)
Degree Days  
Heating Degree Days 0 9  
Month to date heating degree days 141  
Since 1 July heating degree days 6168  
Cooling Degree Days 2 1  
Month to date cooling degree days 7  
Year to date cooling degree days 16  
Growing Degree Days 18 (Base 50)    
Moisture  
Dew Point 61 °F    
Average Humidity 89    
Maximum Humidity 100    
Minimum Humidity 57    
Precipitation  
Precipitation 0.73 in 0.12 in 0.91 in (1957)
Month to date precipitation 1.62  
Year to date precipitation 12.62  
Snow  
Snow 0.00 in 0.00 in - ()
Month to date snowfall 0.0  
Since 1 July snowfall 62.7  
Snow Depth -    
Sea Level Pressure  
Sea Level Pressure 30.05 in    
Wind  
Wind Speed 5 mph (NW)    
Max Wind Speed 18 mph    
Max Gust Speed 29 mph    
Visibility 6 miles    
Events Rain , Thunderstorm    
T = Trace of Precipitation, MM = Missing Value Source: NWS Daily Summary

Daily Weather History Graph

Daily Weather History Graph

Search for Another Location

Airport:

Trip Planner

Search our weather history database for the weather conditions in past years. The results will help you decide how hot, cold, wet, or windy it might be!

Date:

Astronomy

May. 14, 2014 Rise Set
Actual Time 6:03 AM EDT 8:34 PM EDT
Civil Twilight 5:32 AM EDT 9:06 PM EDT
Nautical Twilight 4:52 AM EDT 9:46 PM EDT
Astronomical Twilight 4:08 AM EDT 10:30 PM EDT
Moon 8:38 PM EDT (5/14) 6:02 AM EDT (5/14)
Length of Visible Light 15h 34m
Length of Day
14h 31m
Full, 100% of the Moon is Illuminated
May 14
Full
May 14
Full
May 21
Last Quarter
May 28
New
Jun 5
First Quarter

Hourly Weather History & Observations

Time (EDT) Temp. Dew Point Humidity Pressure Visibility Wind Dir Wind Speed Gust Speed Precip Events Conditions
12:53 AM 64.0 °F 61.0 °F 90% 30.04 in 7.0 mi Calm Calm - N/A   Mostly Cloudy
1:53 AM 64.9 °F 61.0 °F 87% 30.06 in 10.0 mi South 3.5 mph - N/A   Partly Cloudy
2:53 AM 64.9 °F 62.1 °F 90% 30.07 in 10.0 mi South 6.9 mph - N/A   Mostly Cloudy
3:00 AM 64.9 °F 62.1 °F 90% 30.09 in 10.0 mi SSE 6.9 mph - N/A   Mostly Cloudy
4:11 AM 64.9 °F 62.1 °F 90% 30.09 in 10.0 mi SSE 5.8 mph - N/A   Overcast
4:53 AM 64.9 °F 62.1 °F 90% 30.08 in 9.0 mi West 9.2 mph - 0.00 in   Overcast
5:13 AM 64.9 °F 62.1 °F 90% 30.09 in 6.0 mi SSE 3.5 mph - 0.02 in Rain , Thunderstorm Light Rain
5:28 AM 64.9 °F 63.0 °F 93% 30.10 in 5.0 mi SSW 4.6 mph - 0.04 in Rain Light Rain
5:53 AM 64.9 °F 62.1 °F 90% 30.07 in 8.0 mi Calm Calm - 0.04 in   Partly Cloudy
6:42 AM 64.0 °F 62.1 °F 93% 30.09 in 1.8 mi Calm Calm - N/A   Partly Cloudy
6:53 AM 64.0 °F 62.1 °F 93% 30.07 in 1.0 mi Calm Calm - N/A   Clear
7:06 AM 64.0 °F 62.1 °F 93% 30.09 in 1.5 mi Calm Calm - N/A   Clear
7:25 AM 64.0 °F 62.1 °F 93% 30.11 in 2.0 mi West 3.5 mph - N/A   Scattered Clouds
7:33 AM 64.0 °F 63.0 °F 96% 30.11 in 3.0 mi Calm Calm - N/A   Mostly Cloudy
7:43 AM 64.0 °F 62.1 °F 93% 30.12 in 4.0 mi WSW 3.5 mph - N/A   Mostly Cloudy
7:53 AM 64.0 °F 62.1 °F 93% 30.10 in 8.0 mi West 3.5 mph - N/A   Overcast
8:26 AM 64.9 °F 63.0 °F 93% 30.12 in 6.0 mi WSW 3.5 mph - N/A   Overcast
8:53 AM 64.9 °F 63.0 °F 93% 30.10 in 6.0 mi West 4.6 mph - N/A   Overcast
9:06 AM 64.9 °F 63.0 °F 93% 30.11 in 4.0 mi NW 3.5 mph - N/A   Overcast
9:15 AM 64.9 °F 63.0 °F 93% 30.12 in 2.5 mi NW 5.8 mph - N/A   Overcast
9:41 AM 64.9 °F 63.0 °F 93% 30.12 in 2.5 mi WNW 4.6 mph - N/A   Overcast
9:48 AM 64.4 °F 62.6 °F 94% 30.12 in 4.0 mi NW 4.6 mph - N/A   Overcast
9:53 AM 64.9 °F 63.0 °F 93% 30.12 in 3.0 mi NW 4.6 mph - N/A   Overcast
10:02 AM 64.9 °F 63.0 °F 93% 30.12 in 2.5 mi WNW 3.5 mph - N/A   Overcast
10:26 AM 66.9 °F 64.0 °F 90% 30.11 in 5.0 mi Variable 3.5 mph - N/A   Overcast
11:07 AM 68.0 °F 64.0 °F 87% 30.11 in 7.0 mi NNE 3.5 mph - N/A   Overcast
11:14 AM 68.0 °F 64.0 °F 87% 30.12 in 7.0 mi NNW 6.9 mph - N/A   Overcast
11:32 AM 68.0 °F 63.0 °F 84% 30.11 in 7.0 mi NNW 6.9 mph - N/A   Overcast
11:53 AM 70.0 °F 64.0 °F 81% 30.09 in 10.0 mi Calm Calm - N/A   Mostly Cloudy
12:04 PM 72.0 °F 64.9 °F 78% 30.09 in 10.0 mi East 4.6 mph - N/A   Scattered Clouds
12:26 PM 75.0 °F 63.0 °F 66% 30.09 in 10.0 mi South 12.7 mph - N/A   Mostly Cloudy
12:53 PM 77.0 °F 63.0 °F 62% 30.06 in 10.0 mi South 9.2 mph - N/A   Mostly Cloudy
1:53 PM 78.1 °F 62.1 °F 58% 30.03 in 10.0 mi SSE 9.2 mph - N/A   Mostly Cloudy
2:48 PM 78.8 °F 62.6 °F 57% 30.02 in 10.0 mi NNE 10.4 mph - N/A Thunderstorm Scattered Clouds
2:53 PM 73.0 °F 62.1 °F 68% 30.01 in 10.0 mi NNE 9.2 mph - N/A Thunderstorm Scattered Clouds
3:03 PM 71.1 °F 61.0 °F 70% 30.02 in 10.0 mi North 9.2 mph 17.3 mph N/A   Mostly Cloudy
3:53 PM 70.0 °F 61.0 °F 73% 30.00 in 10.0 mi North 9.2 mph - N/A   Mostly Cloudy
4:09 PM 64.0 °F 57.9 °F 80% 30.02 in 8.0 mi NW 18.4 mph 28.8 mph N/A Thunderstorm Overcast
4:15 PM 59.0 °F 55.9 °F 90% 30.05 in 2.5 mi NW 16.1 mph 28.8 mph N/A Thunderstorm Overcast
4:20 PM 57.9 °F 55.0 °F 90% 30.07 in 1.2 mi WNW 13.8 mph 21.9 mph N/A Thunderstorm Overcast
4:29 PM 57.9 °F 55.9 °F 93% 30.07 in 3.0 mi NW 6.9 mph 20.7 mph 0.00 in Rain , Thunderstorm Light Thunderstorms and Rain
4:44 PM 59.0 °F 57.0 °F 93% 30.04 in 7.0 mi NE 6.9 mph - 0.04 in Rain , Thunderstorm Light Thunderstorms and Rain
4:53 PM 61.0 °F 57.0 °F 87% 30.03 in 9.0 mi Variable 6.9 mph - 0.04 in Thunderstorm Overcast
5:08 PM 61.0 °F 57.9 °F 90% 30.03 in 9.0 mi Variable 5.8 mph - N/A   Mostly Cloudy
5:31 PM 62.1 °F 59.0 °F 90% 30.04 in 10.0 mi NNW 6.9 mph - N/A Thunderstorm Mostly Cloudy
5:43 PM 61.0 °F 59.0 °F 93% 30.04 in 7.0 mi Variable 5.8 mph - N/A Thunderstorm Thunderstorm
5:53 PM 62.1 °F 59.0 °F 90% 30.07 in 6.0 mi WSW 16.1 mph - 0.00 in Rain , Thunderstorm Light Thunderstorms and Rain
5:58 PM 61.0 °F 59.0 °F 93% 30.06 in 1.8 mi West 9.2 mph - 0.17 in Rain , Thunderstorm Heavy Thunderstorms and Rain
6:03 PM 61.0 °F 57.9 °F 90% 30.04 in 0.8 mi Variable 3.5 mph - 0.31 in Rain , Thunderstorm Heavy Thunderstorms and Rain
6:09 PM 61.0 °F 57.9 °F 90% 30.03 in 1.0 mi East 12.7 mph - 0.37 in Rain , Thunderstorm Heavy Thunderstorms and Rain
6:14 PM 61.0 °F 57.9 °F 90% 30.02 in 2.0 mi ENE 8.1 mph - 0.37 in Rain , Thunderstorm Light Thunderstorms and Rain
6:22 PM 61.0 °F 59.0 °F 93% 30.01 in 7.0 mi ENE 6.9 mph - 0.37 in Rain , Thunderstorm Light Thunderstorms and Rain
6:29 PM 61.0 °F 59.0 °F 93% 30.01 in 9.0 mi ENE 6.9 mph - 0.37 in Thunderstorm Mostly Cloudy
6:38 PM 61.0 °F 59.0 °F 93% 30.00 in 10.0 mi Variable 4.6 mph - 0.37 in Thunderstorm Mostly Cloudy
6:40 PM 61.0 °F 59.0 °F 93% 30.00 in 10.0 mi East 5.8 mph - 0.37 in   Scattered Clouds
6:53 PM 62.1 °F 60.1 °F 93% 30.00 in 10.0 mi East 6.9 mph - 0.37 in   Scattered Clouds
7:53 PM 63.0 °F 60.1 °F 90% 29.97 in 10.0 mi ESE 10.4 mph - 0.05 in   Partly Cloudy
8:53 PM 62.1 °F 60.1 °F 93% 29.98 in 10.0 mi East 4.6 mph - N/A   Mostly Cloudy
9:31 PM 62.1 °F 60.1 °F 93% 29.98 in 10.0 mi ESE 6.9 mph - N/A Thunderstorm Scattered Clouds
9:43 PM 62.1 °F 60.1 °F 93% 30.01 in 4.0 mi WSW 5.8 mph - 0.06 in Rain , Thunderstorm Heavy Thunderstorms and Rain
9:46 PM 62.1 °F 60.1 °F 93% 30.00 in 1.8 mi Variable 3.5 mph - 0.11 in Rain , Thunderstorm Heavy Thunderstorms and Rain
9:53 PM 62.1 °F 61.0 °F 96% 30.00 in 2.0 mi Calm Calm - 0.12 in Rain , Thunderstorm Light Thunderstorms and Rain
9:57 PM 62.1 °F 60.1 °F 93% 30.02 in 6.0 mi SW 8.1 mph - 0.01 in Rain , Thunderstorm Light Rain
10:19 PM 62.1 °F 61.0 °F 96% 29.99 in 6.0 mi ESE 5.8 mph - 0.07 in Rain Light Rain
10:53 PM 63.0 °F 61.0 °F 93% 29.98 in 8.0 mi ESE 5.8 mph - 0.09 in Rain Light Rain
11:36 PM 62.1 °F 61.0 °F 96% 29.97 in 10.0 mi Calm Calm - 0.02 in   Scattered Clouds
11:53 PM 61.0 °F 61.0 °F 100% 29.95 in 7.0 mi East 5.8 mph - 0.02 in   Mostly Cloudy